Vingaren — OZ2131 — position and weather

sailwx.info

Track history (hours):
 
Tides and Currents Weather Stations Pressure Air Temp Water Temp Dewpoint Dewpoint Depression Visibility Wind Speed Wind Dir Waves Ship Positions

Vingaren

Last reported at 2014-Jul-24 14:33 UTC. Time now 2014-Jul-24 15:26 UTC.
Position N 57°35' E 018°54'.

Length 89 m; draft 4 m.

Type: Cargo ship. MMSI: 231844000.

Date/timePositionNaut miles runAvg speedWind from/ knotsBaromVisibWave heightAir tempDewpointWater temp
2014-Jul-24 14:33N 57°35' E 018°54'4 3.2
2014-Jul-24 13:22N 57°37' E 018°49'0 0.0
2014-Jul-24 12:31N 57°37' E 018°49'0 0.0
2014-Jul-24 03:28N 57°37' E 018°49'0 0.0
2014-Jul-24 02:31N 57°37' E 018°49'0 0.0
2014-Jul-24 01:28N 57°37' E 018°49'0 0.0
2014-Jul-24 00:28N 57°37' E 018°49'0 0.0
2014-Jul-23 23:31N 57°37' E 018°49'0 0.0
2014-Jul-23 22:31N 57°37' E 018°49'0 0.0
2014-Jul-23 19:28N 57°37' E 018°49'0 0.0
2014-Jul-23 17:04N 57°37' E 018°49'0 0.0
2014-Jul-23 16:28N 57°37' E 018°49'0 0.0
2014-Jul-23 15:25N 57°37' E 018°49'0 0.0
2014-Jul-23 14:07N 57°37' E 018°49'0 0.0
2014-Jul-23 13:31N 57°37' E 018°49'0 0.0
2014-Jul-23 12:31N 57°37' E 018°49'0 0.0
2014-Jul-23 11:31N 57°37' E 018°49'0 0.0
2014-Jul-23 10:31N 57°37' E 018°49'0 0.0
2014-Jul-23 09:19N 57°37' E 018°49'0 0.0
2014-Jul-23 06:18N 57°37' E 018°49'0 0.0
2014-Jul-23 05:33N 57°37' E 018°49'0 0.0
2014-Jul-23 04:33N 57°37' E 018°49'0 0.0
2014-Jul-23 03:21N 57°37' E 018°49'0 0.0
2014-Jul-23 02:24N 57°37' E 018°49'0 0.0
2014-Jul-23 01:33N 57°37' E 018°49'0 0.0
2014-Jul-23 00:33N 57°37' E 018°49'0 0.0
2014-Jul-22 23:27N 57°37' E 018°49'0 0.0
2014-Jul-22 22:30N 57°37' E 018°49'0 0.0
2014-Jul-22 21:30N 57°37' E 018°49'0 0.0
2014-Jul-22 19:21N 57°37' E 018°49'0 0.0
2014-Jul-22 16:12N 57°37' E 018°49'0 0.0
2014-Jul-22 15:30N 57°37' E 018°49'0 0.0
2014-Jul-22 14:30N 57°37' E 018°49'0 0.0
2014-Jul-22 13:06N 57°37' E 018°49'0 0.0
2014-Jul-22 12:33N 57°37' E 018°49'0 0.0
2014-Jul-22 06:27N 57°37' E 018°49'0 0.0
2014-Jul-22 04:27N 57°37' E 018°49'0 0.0
2014-Jul-22 03:30N 57°37' E 018°49'0 0.0
2014-Jul-22 02:21N 57°37' E 018°49'0 0.0
2014-Jul-22 01:33N 57°37' E 018°49'0 0.0
2014-Jul-22 00:33N 57°37' E 018°49'0 0.0
2014-Jul-21 23:30N 57°37' E 018°49'0 0.0
2014-Jul-21 22:29N 57°37' E 018°49'0 0.0
2014-Jul-21 21:26N 57°37' E 018°49'0 0.0
2014-Jul-21 20:29N 57°37' E 018°49'0 0.0
2014-Jul-21 20:11N 57°37' E 018°49'0 0.0
2014-Jul-21 19:20N 57°37' E 018°49'0 0.0
2014-Jul-21 18:29N 57°37' E 018°49'0 0.0
2014-Jul-21 17:32N 57°37' E 018°49'0 0.0
2014-Jul-21 15:26N 57°37' E 018°49'0 0.0
2014-Jul-21 13:17N 57°37' E 018°49'  
2014-Jul-18 03:33N 59°30' E 022°31'1110.0
2014-Jul-18 02:30N 59°33' E 022°51'910.0
2014-Jul-18 01:33N 59°36' E 023°08'1110.5
2014-Jul-18 00:33N 59°39' E 023°28'1010.0
2014-Jul-17 23:33N 59°42' E 023°47'1010.0
2014-Jul-17 22:33N 59°45' E 024°06'1110.2
2014-Jul-17 21:28N 59°47' E 024°28'1410.1
2014-Jul-17 20:07N 59°50' E 024°54'6 9.8
2014-Jul-17 19:32N 59°51' E 025°05'10 9.7
2014-Jul-17 18:32N 59°51' E 025°24'39 7.9
2014-Jul-17 13:32N 59°31' E 026°33'0 0.0
2014-Jul-17 12:32N 59°31' E 026°33'0 0.0
2014-Jul-17 11:32N 59°31' E 026°33'38 2.0
2014-Jul-16 17:03N 59°49' E 025°27'2910.7
2014-Jul-16 14:22N 59°44' E 024°31'3010.6
2014-Jul-16 11:30N 59°35' E 023°33'  
Track history (hours):
 
Tides and Currents Weather Stations Pressure Air Temp Water Temp Dewpoint Dewpoint Depression Visibility Wind Speed Wind Dir Waves Ship Positions

Vingaren

Last reported at 2014-Jul-24 14:33 UTC. Time now 2014-Jul-24 15:26 UTC.
Position N 57°35' E 018°54'.

Length 89 m; draft 4 m.

Type: Cargo ship. MMSI: 231844000.

Date/timePositionNaut miles runAvg speedWind from/ knotsBaromVisibWave heightAir tempDewpointWater temp
2014-Jul-24 14:33N 57°35' E 018°54'4 3.2
2014-Jul-24 13:22N 57°37' E 018°49'0 0.0
2014-Jul-24 12:31N 57°37' E 018°49'0 0.0
2014-Jul-24 03:28N 57°37' E 018°49'0 0.0
2014-Jul-24 02:31N 57°37' E 018°49'0 0.0
2014-Jul-24 01:28N 57°37' E 018°49'0 0.0
2014-Jul-24 00:28N 57°37' E 018°49'0 0.0
2014-Jul-23 23:31N 57°37' E 018°49'0 0.0
2014-Jul-23 22:31N 57°37' E 018°49'0 0.0
2014-Jul-23 19:28N 57°37' E 018°49'0 0.0
2014-Jul-23 17:04N 57°37' E 018°49'0 0.0
2014-Jul-23 16:28N 57°37' E 018°49'0 0.0
2014-Jul-23 15:25N 57°37' E 018°49'0 0.0
2014-Jul-23 14:07N 57°37' E 018°49'0 0.0
2014-Jul-23 13:31N 57°37' E 018°49'0 0.0
2014-Jul-23 12:31N 57°37' E 018°49'0 0.0
2014-Jul-23 11:31N 57°37' E 018°49'0 0.0
2014-Jul-23 10:31N 57°37' E 018°49'0 0.0
2014-Jul-23 09:19N 57°37' E 018°49'0 0.0
2014-Jul-23 06:18N 57°37' E 018°49'0 0.0
2014-Jul-23 05:33N 57°37' E 018°49'0 0.0
2014-Jul-23 04:33N 57°37' E 018°49'0 0.0
2014-Jul-23 03:21N 57°37' E 018°49'0 0.0
2014-Jul-23 02:24N 57°37' E 018°49'0 0.0
2014-Jul-23 01:33N 57°37' E 018°49'0 0.0
2014-Jul-23 00:33N 57°37' E 018°49'0 0.0
2014-Jul-22 23:27N 57°37' E 018°49'0 0.0
2014-Jul-22 22:30N 57°37' E 018°49'0 0.0
2014-Jul-22 21:30N 57°37' E 018°49'0 0.0
2014-Jul-22 19:21N 57°37' E 018°49'0 0.0
2014-Jul-22 16:12N 57°37' E 018°49'0 0.0
2014-Jul-22 15:30N 57°37' E 018°49'0 0.0
2014-Jul-22 14:30N 57°37' E 018°49'0 0.0
2014-Jul-22 13:06N 57°37' E 018°49'0 0.0
2014-Jul-22 12:33N 57°37' E 018°49'0 0.0
2014-Jul-22 06:27N 57°37' E 018°49'0 0.0
2014-Jul-22 04:27N 57°37' E 018°49'0 0.0
2014-Jul-22 03:30N 57°37' E 018°49'0 0.0
2014-Jul-22 02:21N 57°37' E 018°49'0 0.0
2014-Jul-22 01:33N 57°37' E 018°49'0 0.0
2014-Jul-22 00:33N 57°37' E 018°49'0 0.0
2014-Jul-21 23:30N 57°37' E 018°49'0 0.0
2014-Jul-21 22:29N 57°37' E 018°49'0 0.0
2014-Jul-21 21:26N 57°37' E 018°49'0 0.0
2014-Jul-21 20:29N 57°37' E 018°49'0 0.0
2014-Jul-21 20:11N 57°37' E 018°49'0 0.0
2014-Jul-21 19:20N 57°37' E 018°49'0 0.0
2014-Jul-21 18:29N 57°37' E 018°49'0 0.0
2014-Jul-21 17:32N 57°37' E 018°49'0 0.0
2014-Jul-21 15:26N 57°37' E 018°49'0 0.0
2014-Jul-21 13:17N 57°37' E 018°49'  
2014-Jul-18 03:33N 59°30' E 022°31'1110.0
2014-Jul-18 02:30N 59°33' E 022°51'910.0
2014-Jul-18 01:33N 59°36' E 023°08'1110.5
2014-Jul-18 00:33N 59°39' E 023°28'1010.0
2014-Jul-17 23:33N 59°42' E 023°47'1010.0
2014-Jul-17 22:33N 59°45' E 024°06'1110.2
2014-Jul-17 21:28N 59°47' E 024°28'1410.1
2014-Jul-17 20:07N 59°50' E 024°54'6 9.8
2014-Jul-17 19:32N 59°51' E 025°05'10 9.7
2014-Jul-17 18:32N 59°51' E 025°24'39 7.9
2014-Jul-17 13:32N 59°31' E 026°33'0 0.0
2014-Jul-17 12:32N 59°31' E 026°33'0 0.0
2014-Jul-17 11:32N 59°31' E 026°33'38 2.0
2014-Jul-16 17:03N 59°49' E 025°27'2910.7
2014-Jul-16 14:22N 59°44' E 024°31'3010.6
2014-Jul-16 11:30N 59°35' E 023°33'  

Dump ship's entire track history